QPF
0.00 0.00 0.00 0.00 0.00 0.00 0.00 0.00 0.00 0.00 0.00 0.00 0.00 0.00 0.00 0.00 0.00 0.00 0.00 0.00 0.00 0.00 0.00 0.00 0.00 0.00 0.00 0.00 0.00 0.00 0.00 0.00 0.00 0.00 0.00 0.00 0.00 0.00 0.00 0.00 0.00 0.00 0.00
0.00 0.00 0.00 0.00 0.00 0.00 0.00 0.00 0.00 0.00 0.00 0.00 0.00 0.00 0.00 0.00 0.00 0.00 0.00 0.00 0.00 0.00 0.00 0.00 0.00 0.00 0.00 0.00 0.00 0.00 0.00 0.00 0.00 0.00 0.00 0.00 0.00 0.00 0.00 0.00 0.00 0.00 0.00
0.00 0.00 0.00 0.00 0.00 0.00 0.00 0.00 0.00 0.00 0.00 0.00 0.00 0.00 0.00 0.00 0.00 0.00 0.00 0.00 0.00 0.00 0.00 0.00 0.00 0.00 0.00 0.00 0.00 0.00 0.00 0.00 0.00 0.00 0.00 0.00 0.00 0.00 0.00 0.00 0.00 0.00 0.00
0.00 0.00 0.00 0.00 0.00 0.00 0.00 0.00 0.00 0.00 0.00 0.00 0.00 0.00 0.00 0.00 0.00 0.00 0.00 0.00 0.00 0.00 0.00 0.00 0.00 0.00 0.00 0.00 0.00 0.00 0.00 0.00 0.00 0.00 0.00 0.00 0.00 0.00 0.00 0.00 0.00 0.00 0.00
0.00 0.00 0.00 0.00 0.00 0.00 0.00 0.00 0.00 0.00 0.00 0.00 0.00 0.00 0.00 0.00 0.00 0.00 0.00 0.00 0.00 0.00 0.00 0.00 0.00 0.00 0.00 0.00 0.00 0.00 0.00 0.00 0.00 0.00 0.00 0.00 0.00 0.00 0.00 0.00 0.00 0.00 0.00
0.00 0.00 0.00 0.00 0.00 0.00 0.00 0.00 0.00 0.00 0.00 0.00 0.00 0.00 0.00 0.00 0.00 0.00 0.00 0.00 0.00 0.00 0.00 0.00 0.00 0.00 0.00 0.00 0.00 0.00 0.00 0.00 0.00 0.00 0.00 0.00 0.00 0.00 0.00 0.00 0.00 0.00 0.00
0.00 0.00 0.00 0.00 0.00 0.00 0.00 0.00 0.00 0.00 0.00 0.00 0.00 0.00 0.00 0.00 0.00 0.00 0.00 0.00 0.00 0.00 0.00 0.00 0.00 0.00 0.00 0.00 0.00 0.00 0.00 0.00 0.00 0.00 0.00 0.00 0.00 0.00 0.00 0.00 0.00 0.00 0.00
0.00 0.00 0.00 0.00 0.00 0.00 0.00 0.00 0.00 0.00 0.00 0.00 0.00 0.00 0.00 0.00 0.00 0.00 0.00 0.00 0.00 0.00 0.00 0.00 0.00 0.00 0.00 0.00 0.00 0.00 0.00 0.00 0.00 0.00 0.00 0.00 0.00 0.00 0.00 0.00 0.00 0.00 0.00
0.00 0.00 0.00 0.00 0.00 0.00 0.00 0.00 0.00 0.00 0.00 0.00 0.00 0.00 0.00 0.00 0.00 0.00 0.00 0.00 0.00 0.00 0.00 0.00 0.00 0.00 0.00 0.00 0.00 0.00 0.00 0.00 0.00 0.00 0.00 0.00 0.00 0.00 0.00 0.00 0.00 0.00 0.00
0.00 0.00 0.00 0.00 0.00 0.00 0.00 0.00 0.00 0.00 0.00 0.00 0.00 0.00 0.00 0.00 0.00 0.00 0.00 0.00 0.00 0.00 0.00 0.00 0.00 0.00 0.00 0.00 0.00 0.00 0.00 0.00 0.00 0.00 0.00 0.00 0.00 0.00 0.00 0.00 0.00 0.00 0.00
0.00 0.00 0.00 0.00 0.00 0.00 0.00 0.00 0.00 0.00 0.00 0.00 0.00 0.00 0.00 0.00 0.00 0.00 0.00 0.00 0.00 0.00 0.00 0.00 0.00 0.00 0.00 0.00 0.00 0.00 0.00 0.00 0.00 0.00 0.00 0.00 0.00 0.00 0.00 0.00 0.00 0.00 0.00
0.00 0.00 0.00 0.00 0.00 0.00 0.00 0.00 0.00 0.00 0.00 0.00 0.00 0.00 0.00 0.00 0.00 0.00 0.00 0.00 0.00 0.00 0.00 0.00 0.00 0.00 0.00 0.00 0.00 0.00 0.00 0.00 0.00 0.00 0.00 0.00 0.00 0.00 0.00 0.00 0.00 0.00 0.00
0.00 0.00 0.00 0.00 0.00 0.00 0.00 0.00 0.00 0.00 0.00 0.00 0.00 0.00 0.00 0.00 0.00 0.00 0.00 0.00 0.00 0.00 0.00 0.00 0.00 0.00 0.00 0.00 0.00 0.00 0.00 0.00 0.00 0.00 0.00 0.00 0.00 0.00 0.00 0.00 0.00 0.00 0.00
0.00 0.00 0.00 0.00 0.00 0.00 0.00 0.00 0.00 0.00 0.00 0.00 0.00 0.00 0.00 0.00 0.00 0.00 0.00 0.00 0.00 0.00 0.00 0.00 0.00 0.00 0.00 0.00 0.00 0.00 0.00 0.00 0.00 0.00 0.00 0.00 0.00 0.00 0.00 0.00 0.00 0.00 0.00
0.00 0.00 0.00 0.00 0.00 0.00 0.00 0.00 0.00 0.00 0.00 0.00 0.00 0.00 0.00 0.00 0.00 0.00 0.00 0.00 0.00 0.00 0.00 0.00 0.00 0.00 0.00 0.00 0.00 0.00 0.00 0.00 0.00 0.00 0.00 0.00 0.00 0.00 0.00 0.00 0.00 0.00 0.01
0.00 0.00 0.00 0.00 0.00 0.00 0.00 0.00 0.00 0.00 0.00 0.00 0.00 0.00 0.00 0.00 0.00 0.00 0.00 0.00 0.00 0.00 0.00 0.00 0.00 0.00 0.00 0.00 0.00 0.00 0.00 0.00 0.00 0.00 0.00 0.00 0.00 0.00 0.00 0.00 0.00 0.00 0.02
0.00 0.00 0.00 0.00 0.00 0.00 0.00 0.00 0.00 0.00 0.00 0.00 0.00 0.00 0.00 0.00 0.00 0.00 0.00 0.00 0.00 0.00 0.00 0.00 0.00 0.00 0.00 0.00 0.00 0.00 0.00 0.00 0.00 0.00 0.00 0.00 0.00 0.00 0.00 0.00 0.01 0.01 0.04
0.00 0.00 0.00 0.00 0.00 0.00 0.00 0.00 0.00 0.00 0.00 0.00 0.00 0.00 0.00 0.00 0.00 0.00 0.00 0.00 0.00 0.00 0.00 0.00 0.00 0.00 0.00 0.00 0.00 0.00 0.00 0.00 0.00 0.00 0.00 0.00 0.00 0.00 0.00 0.00 0.03 0.06 0.02
0.00 0.00 0.00 0.00 0.00 0.00 0.00 0.00 0.00 0.00 0.00 0.00 0.00 0.00 0.00 0.00 0.00 0.00 0.00 0.00 0.00 0.00 0.00 0.00 0.00 0.00 0.00 0.00 0.00 0.00 0.00 0.00 0.00 0.00 0.00 0.00 0.00 0.00 0.00 0.04 0.05 0.00 0.00
0.00 0.00 0.00 0.00 0.00 0.00 0.00 0.00 0.00 0.00 0.00 0.00 0.00 0.00 0.00 0.00 0.00 0.00 0.00 0.00 0.00 0.00 0.00 0.00 0.00 0.00 0.00 0.00 0.00 0.00 0.00 0.00 0.00 0.00 0.00 0.00 0.00 0.01 0.03 0.02 0.00 0.00 0.00
0.00 0.00 0.00 0.00 0.00 0.00 0.00 0.00 0.00 0.00 0.00 0.00 0.00 0.00 0.00 0.00 0.00 0.00 0.00 0.00 0.00 0.00 0.00 0.00 0.00 0.00 0.00 0.00 0.00 0.00 0.00 0.00 0.01 0.00 0.00 0.00 0.01 0.03 0.01 0.00 0.00 0.00 0.01
0.00 0.00 0.00 0.00 0.00 0.00 0.00 0.00 0.00 0.00 0.00 0.00 0.00 0.00 0.00 0.00 0.00 0.00 0.00 0.00 0.00 0.00 0.00 0.00 0.00 0.00 0.00 0.00 0.00 0.00 0.00 0.01 0.01 0.00 0.00 0.01 0.02 0.00 0.00 0.00 0.00 0.01 0.00
0.00 0.00 0.00 0.00 0.00 0.00 0.00 0.00 0.00 0.00 0.00 0.00 0.00 0.00 0.00 0.00 0.00 0.00 0.00 0.00 0.00 0.00 0.00 0.00 0.00 0.00 0.00 0.00 0.00 0.00 0.00 0.00 0.00 0.00 0.01 0.01 0.00 0.00 0.00 0.00 0.00 0.00 0.00
0.00 0.00 0.00 0.00 0.00 0.00 0.00 0.00 0.00 0.00 0.00 0.00 0.00 0.00 0.00 0.00 0.00 0.00 0.00 0.00 0.00 0.00 0.00 0.00 0.00 0.00 0.00 0.00 0.00 0.00 0.00 0.00 0.00 0.00 0.00 0.00 0.00 0.00 0.00 0.00 0.00 0.00 0.00
0.00 0.00 0.00 0.00 0.00 0.00 0.00 0.00 0.00 0.00 0.00 0.00 0.00 0.00 0.00 0.00 0.00 0.00 0.00 0.00 0.00 0.00 0.00 0.00 0.00 0.00 0.00 0.00 0.00 0.00 0.00 0.00 0.00 0.00 0.00 0.00 0.00 0.00 0.00 0.00 0.00 0.00 0.00
0.00 0.00 0.00 0.00 0.00 0.00 0.00 0.00 0.00 0.00 0.00 0.00 0.00 0.00 0.00 0.00 0.00 0.00 0.00 0.00 0.00 0.00 0.00 0.00 0.00 0.00 0.00 0.00 0.00 0.00 0.01 0.00 0.00 0.00 0.00 0.00 0.00 0.00 0.00 0.00 0.00 0.00 0.00
MSLP
1007.20 1007.58 1007.68 1007.49 1007.74 1007.84 1007.82 1008.26 1008.67 1009.32 1009.50 1010.17 1011.04 1011.88 1012.66 1013.27 1013.47 1013.94 1014.17 1014.72 1014.95 1015.18 1015.38 1015.67 1015.82 1015.93 1016.09 1016.28 1016.20 1016.05 1016.08 1015.91 1015.66 1015.22 1014.44 1013.55 1013.08 1013.04 1013.10 1012.89 1012.70 1012.51 1012.43
1007.53 1007.85 1007.77 1007.69 1007.90 1008.11 1008.20 1008.63 1009.03 1009.50 1009.90 1010.40 1011.22 1011.88 1013.13 1013.82 1014.08 1014.43 1015.00 1015.25 1015.40 1015.65 1015.84 1016.24 1016.50 1016.57 1016.60 1016.65 1016.65 1016.69 1016.70 1016.59 1016.35 1016.31 1015.70 1015.02 1014.11 1013.31 1013.16 1013.11 1012.98 1012.84 1012.52
1007.20 1007.70 1007.85 1008.07 1008.29 1008.62 1008.60 1008.82 1009.26 1009.77 1010.42 1010.95 1011.52 1012.63 1013.53 1014.16 1014.65 1015.18 1015.67 1015.90 1016.00 1016.27 1016.42 1016.63 1016.82 1017.02 1017.08 1017.21 1017.20 1017.12 1017.16 1017.20 1016.79 1016.59 1016.55 1016.16 1015.93 1014.94 1013.50 1013.20 1012.98 1012.82 1012.62
1006.61 1007.29 1007.97 1008.47 1008.68 1009.00 1008.78 1009.01 1009.37 1010.12 1010.85 1011.18 1011.82 1012.65 1013.44 1014.34 1015.26 1015.64 1016.17 1016.43 1016.52 1016.72 1016.85 1016.98 1017.12 1017.28 1017.43 1017.49 1017.42 1017.34 1017.31 1017.27 1017.35 1016.98 1016.70 1016.84 1016.73 1016.22 1014.49 1013.47 1013.06 1012.95 1012.68
1005.91 1007.05 1007.83 1008.36 1008.88 1009.13 1009.12 1009.52 1009.90 1010.53 1011.10 1011.59 1012.18 1013.06 1013.95 1014.73 1015.47 1016.09 1016.47 1016.82 1017.09 1017.13 1017.22 1017.32 1017.46 1017.53 1017.62 1017.75 1017.64 1017.54 1017.46 1017.43 1017.47 1017.42 1017.15 1016.88 1016.53 1016.24 1016.07 1014.22 1013.41 1012.93 1012.46
1006.22 1007.21 1007.97 1008.64 1009.23 1009.70 1009.70 1009.96 1010.50 1011.17 1011.53 1012.13 1012.82 1013.53 1014.27 1015.22 1015.88 1016.58 1016.90 1017.25 1017.40 1017.51 1017.59 1017.64 1017.75 1017.80 1017.82 1017.88 1017.82 1017.72 1017.57 1017.55 1017.48 1017.35 1017.23 1017.05 1016.91 1016.44 1015.99 1014.81 1013.79 1013.10 1012.37
1005.90 1007.16 1008.01 1008.92 1009.50 1010.14 1010.16 1010.54 1011.05 1011.95 1012.34 1012.84 1013.63 1014.21 1014.81 1015.43 1016.09 1016.74 1017.13 1017.42 1017.64 1017.88 1017.97 1017.94 1018.02 1018.09 1017.98 1017.93 1017.86 1017.79 1017.68 1017.53 1017.52 1017.38 1017.22 1016.91 1016.78 1016.40 1015.92 1015.13 1013.67 1012.61 1012.09
1005.71 1007.03 1008.00 1008.84 1009.50 1010.32 1010.39 1010.85 1011.66 1012.49 1012.91 1013.51 1014.29 1014.83 1015.33 1015.87 1016.35 1016.77 1017.10 1017.54 1017.78 1018.02 1018.14 1018.23 1018.23 1018.17 1018.10 1018.01 1017.92 1017.86 1017.63 1017.43 1017.29 1017.16 1017.01 1016.88 1016.51 1016.11 1015.70 1015.21 1014.41 1012.38 1011.60
1005.63 1006.99 1008.26 1008.89 1009.69 1010.46 1010.81 1011.22 1012.09 1012.95 1013.41 1014.00 1014.67 1015.41 1015.80 1016.17 1016.65 1017.01 1017.35 1017.71 1017.91 1018.11 1018.19 1018.32 1018.34 1018.29 1018.19 1018.07 1017.98 1017.81 1017.55 1017.29 1017.11 1016.96 1016.80 1016.60 1016.16 1015.76 1015.32 1014.84 1014.41 1013.72 1011.58
1006.05 1007.35 1008.34 1009.11 1010.07 1010.69 1011.24 1011.81 1012.50 1013.29 1013.94 1014.49 1015.09 1015.69 1016.22 1016.57 1017.02 1017.37 1017.75 1018.00 1018.21 1018.32 1018.33 1018.38 1018.36 1018.29 1018.21 1018.06 1017.88 1017.67 1017.37 1017.17 1016.92 1016.68 1016.58 1016.33 1015.93 1015.52 1014.99 1014.45 1013.93 1013.43 1012.61
1006.07 1007.26 1008.40 1009.43 1010.30 1010.94 1011.65 1012.29 1012.97 1013.75 1014.52 1014.98 1015.55 1016.11 1016.67 1017.13 1017.44 1017.74 1018.02 1018.24 1018.37 1018.43 1018.46 1018.41 1018.34 1018.29 1018.17 1017.92 1017.69 1017.41 1017.12 1017.05 1016.80 1016.48 1016.31 1016.09 1015.70 1015.18 1014.60 1014.01 1013.40 1012.74 1012.18
1006.22 1007.39 1008.44 1009.50 1010.43 1011.24 1012.05 1012.68 1013.44 1014.17 1014.93 1015.40 1015.95 1016.53 1017.03 1017.46 1017.77 1018.03 1018.25 1018.41 1018.48 1018.53 1018.54 1018.47 1018.38 1018.26 1018.05 1017.73 1017.48 1017.25 1016.99 1016.82 1016.53 1016.18 1015.94 1015.61 1015.02 1014.63 1014.10 1013.49 1012.83 1012.11 1011.41
1006.56 1007.62 1008.71 1009.61 1010.53 1011.38 1012.23 1013.02 1013.83 1014.62 1015.27 1015.77 1016.33 1016.92 1017.45 1017.77 1018.02 1018.21 1018.38 1018.48 1018.59 1018.60 1018.50 1018.43 1018.37 1018.20 1017.93 1017.62 1017.31 1017.08 1016.68 1016.35 1016.04 1015.73 1015.48 1015.02 1014.54 1014.04 1013.50 1012.90 1012.10 1011.27 1010.49
1006.38 1007.55 1008.74 1009.66 1010.50 1011.43 1012.34 1013.31 1014.23 1014.87 1015.57 1016.16 1016.74 1017.29 1017.72 1017.91 1018.10 1018.37 1018.58 1018.65 1018.64 1018.61 1018.63 1018.58 1018.44 1018.13 1017.79 1017.43 1017.02 1016.60 1016.14 1015.80 1015.48 1015.17 1014.81 1014.38 1013.97 1013.42 1012.69 1011.89 1011.16 1010.49 1009.75
1006.45 1007.32 1008.36 1009.49 1010.56 1011.61 1012.65 1013.62 1014.48 1015.16 1015.81 1016.47 1017.03 1017.53 1017.84 1018.00 1018.38 1018.61 1018.66 1018.68 1018.69 1018.72 1018.72 1018.58 1018.27 1017.97 1017.64 1017.06 1016.49 1015.96 1015.62 1015.37 1014.97 1014.56 1014.24 1013.83 1013.26 1012.62 1011.92 1011.06 1010.41 1009.78 1009.00
1006.08 1007.10 1008.19 1009.39 1010.54 1011.63 1012.76 1013.76 1014.64 1015.40 1015.99 1016.65 1017.23 1017.65 1017.90 1018.27 1018.54 1018.69 1018.76 1018.80 1018.82 1018.84 1018.74 1018.47 1018.27 1017.94 1017.46 1016.87 1016.15 1015.64 1015.23 1014.90 1014.77 1014.38 1013.78 1013.28 1012.70 1012.04 1011.30 1010.78 1009.82 1008.90 1007.82
1005.48 1006.69 1007.89 1009.13 1010.41 1011.60 1012.58 1013.79 1014.74 1015.53 1016.20 1016.81 1017.38 1017.77 1018.10 1018.42 1018.62 1018.73 1018.85 1018.97 1019.01 1018.86 1018.73 1018.49 1018.23 1017.86 1017.34 1016.57 1015.97 1015.43 1015.00 1014.88 1014.54 1014.08 1013.44 1012.84 1012.21 1011.53 1010.76 1009.77 1008.71 1007.84 1007.32
1005.49 1006.76 1008.00 1009.41 1010.74 1011.85 1013.02 1014.02 1014.96 1015.71 1016.42 1017.06 1017.54 1017.95 1018.24 1018.55 1018.74 1018.92 1019.02 1019.04 1018.97 1018.90 1018.79 1018.48 1018.05 1017.76 1017.17 1016.41 1015.80 1015.29 1014.93 1014.58 1014.10 1013.61 1013.11 1012.55 1011.71 1010.96 1009.74 1008.55 1007.73 1007.25 1006.58
1005.69 1006.89 1008.24 1009.63 1011.05 1012.18 1013.26 1014.28 1015.32 1016.01 1016.66 1017.27 1017.73 1018.09 1018.35 1018.65 1018.86 1019.02 1019.16 1019.07 1018.98 1018.91 1018.65 1018.25 1017.90 1017.51 1016.82 1016.23 1015.73 1015.06 1014.58 1014.02 1013.52 1013.02 1012.61 1012.09 1011.12 1010.20 1008.98 1007.97 1007.30 1006.50 1005.87
1006.31 1007.57 1009.01 1010.27 1011.47 1012.76 1013.53 1014.50 1015.56 1016.24 1016.88 1017.40 1017.86 1018.16 1018.41 1018.67 1018.88 1019.05 1019.12 1018.98 1018.94 1018.77 1018.42 1018.02 1017.53 1017.02 1016.64 1016.19 1015.53 1014.82 1014.15 1013.52 1012.85 1012.40 1011.94 1011.37 1010.50 1009.18 1008.37 1007.55 1006.85 1006.15 1005.21
1007.32 1008.56 1009.72 1010.81 1011.98 1013.02 1013.89 1015.03 1015.88 1016.57 1017.01 1017.52 1017.98 1018.27 1018.48 1018.67 1018.84 1018.97 1018.98 1018.99 1018.85 1018.55 1018.23 1017.85 1017.26 1016.89 1016.46 1015.87 1015.30 1014.63 1013.84 1013.21 1012.54 1011.92 1011.17 1010.63 1009.86 1008.81 1007.95 1007.30 1006.94 1005.93 1004.60
1008.52 1009.42 1010.44 1011.80 1012.85 1013.58 1014.33 1015.49 1016.30 1016.85 1017.27 1017.75 1018.15 1018.43 1018.65 1018.76 1018.84 1018.98 1019.00 1018.88 1018.68 1018.39 1017.94 1017.46 1017.09 1016.63 1016.11 1015.64 1014.98 1014.18 1013.44 1012.78 1012.17 1011.56 1010.90 1010.18 1009.29 1008.55 1007.86 1007.25 1006.38 1005.33 1004.54
1009.48 1010.47 1011.28 1012.68 1013.74 1014.24 1014.78 1015.86 1016.74 1017.13 1017.64 1018.11 1018.44 1018.68 1018.74 1018.84 1018.99 1019.14 1019.06 1018.77 1018.46 1018.08 1017.69 1017.34 1016.81 1016.27 1015.71 1015.25 1014.60 1013.83 1012.97 1012.47 1011.81 1011.39 1010.39 1009.79 1009.11 1008.45 1007.85 1007.03 1006.02 1005.24 1004.78
1010.64 1011.51 1012.44 1013.62 1014.60 1015.07 1015.58 1016.18 1016.93 1017.34 1017.87 1018.33 1018.65 1018.80 1018.92 1019.04 1019.07 1019.04 1018.86 1018.71 1018.34 1017.93 1017.43 1016.94 1016.46 1015.95 1015.44 1014.86 1014.06 1013.22 1012.57 1012.12 1011.66 1010.92 1010.29 1009.73 1009.08 1008.37 1007.62 1006.70 1005.89 1005.27 1004.58
1011.62 1012.26 1013.09 1014.08 1015.06 1015.58 1016.21 1016.77 1017.19 1017.61 1018.19 1018.51 1018.72 1018.92 1019.06 1019.14 1019.10 1018.92 1018.72 1018.51 1018.06 1017.58 1017.06 1016.68 1016.27 1015.69 1015.00 1014.40 1013.56 1012.83 1012.06 1011.60 1011.11 1010.32 1010.17 1009.61 1008.92 1008.16 1007.35 1006.46 1005.72 1004.99 1004.26
1012.27 1013.10 1013.95 1014.71 1015.55 1016.01 1016.66 1017.24 1017.53 1017.85 1018.27 1018.66 1018.92 1019.04 1019.12 1019.13 1018.99 1018.84 1018.56 1018.20 1017.77 1017.32 1016.88 1016.44 1015.99 1015.44 1014.88 1014.07 1013.39 1012.60 1012.03 1011.47 1011.13 1010.63 1010.28 1009.60 1009.03 1008.29 1007.41 1006.48 1005.53 1004.79 1004.04
Thickness
5685 5685 5688 5693 5694 5696 5699 5696 5694 5693 5693 5688 5681 5674 5666 5663 5662 5657 5653 5646 5642 5639 5635 5630 5627 5623 5618 5613 5611 5608 5603 5600 5598 5599 5601 5604 5604 5601 5596 5594 5591 5587 5583
5673 5677 5682 5687 5689 5689 5689 5686 5686 5684 5684 5680 5674 5669 5657 5653 5650 5646 5639 5635 5632 5628 5623 5617 5612 5608 5604 5600 5596 5592 5587 5583 5580 5579 5579 5584 5588 5590 5586 5580 5576 5571 5569
5670 5671 5676 5677 5680 5679 5680 5680 5678 5676 5672 5670 5666 5656 5649 5644 5640 5633 5627 5624 5620 5614 5610 5605 5600 5595 5590 5585 5581 5577 5573 5568 5566 5563 5560 5555 5556 5564 5574 5571 5564 5560 5554
5671 5671 5670 5669 5671 5670 5673 5674 5673 5668 5663 5663 5658 5652 5645 5638 5627 5622 5616 5612 5607 5602 5597 5593 5588 5583 5577 5572 5568 5565 5561 5557 5552 5549 5545 5538 5532 5529 5541 5555 5552 5543 5539
5671 5668 5664 5664 5664 5664 5665 5664 5663 5660 5655 5652 5648 5641 5633 5626 5618 5611 5606 5600 5595 5590 5585 5581 5576 5571 5566 5560 5556 5553 5548 5544 5539 5534 5530 5524 5519 5512 5504 5517 5522 5526 5522
5662 5661 5657 5656 5653 5652 5655 5655 5653 5647 5645 5642 5636 5630 5624 5615 5608 5600 5595 5588 5583 5578 5573 5569 5564 5560 5556 5550 5545 5542 5538 5532 5526 5521 5514 5509 5503 5499 5494 5497 5495 5491 5495
5659 5656 5653 5648 5646 5644 5646 5647 5644 5636 5633 5629 5623 5618 5612 5606 5599 5592 5585 5579 5573 5566 5561 5558 5553 5548 5545 5540 5535 5531 5526 5520 5513 5507 5500 5494 5486 5480 5474 5471 5478 5479 5478
5656 5651 5647 5643 5641 5638 5639 5638 5632 5625 5623 5619 5611 5605 5600 5595 5590 5583 5577 5569 5563 5556 5552 5547 5543 5538 5534 5529 5525 5519 5514 5508 5501 5493 5485 5478 5471 5465 5458 5451 5445 5457 5460
5651 5644 5638 5637 5635 5631 5630 5628 5622 5615 5612 5607 5601 5593 5589 5585 5579 5572 5565 5558 5553 5548 5542 5537 5532 5528 5523 5518 5512 5506 5501 5494 5487 5478 5471 5464 5458 5451 5442 5433 5423 5413 5425
5641 5636 5634 5630 5625 5622 5619 5617 5613 5606 5600 5596 5590 5584 5579 5573 5566 5560 5553 5547 5542 5536 5532 5527 5522 5517 5511 5506 5500 5493 5487 5479 5473 5466 5457 5449 5441 5432 5422 5413 5403 5390 5379
5637 5632 5628 5622 5617 5613 5610 5606 5602 5596 5589 5585 5579 5573 5566 5559 5554 5548 5542 5536 5531 5526 5521 5517 5511 5505 5499 5494 5488 5481 5475 5466 5459 5451 5442 5431 5421 5412 5402 5391 5380 5369 5351
5631 5627 5621 5614 5610 5606 5601 5597 5591 5585 5578 5574 5568 5561 5555 5548 5542 5536 5530 5525 5521 5516 5510 5505 5500 5494 5488 5482 5475 5469 5461 5453 5445 5435 5424 5414 5405 5392 5379 5367 5355 5341 5327
5623 5620 5613 5610 5604 5599 5594 5588 5581 5575 5568 5563 5557 5550 5543 5537 5531 5526 5521 5516 5510 5505 5500 5495 5488 5481 5474 5468 5462 5455 5448 5439 5429 5418 5407 5396 5383 5371 5356 5341 5326 5314 5305
5622 5616 5609 5604 5600 5594 5587 5579 5571 5566 5558 5552 5546 5538 5532 5527 5522 5516 5510 5505 5499 5494 5488 5481 5474 5467 5461 5456 5451 5444 5436 5426 5415 5403 5389 5375 5359 5344 5330 5317 5303 5293 5284
5617 5614 5609 5601 5593 5586 5578 5570 5562 5555 5548 5541 5534 5528 5522 5518 5511 5504 5499 5494 5489 5482 5475 5468 5461 5455 5450 5446 5441 5433 5423 5411 5400 5386 5370 5354 5339 5323 5306 5291 5282 5271 5264
5618 5613 5606 5596 5588 5579 5570 5561 5552 5544 5538 5531 5524 5518 5513 5507 5500 5494 5488 5483 5476 5469 5462 5455 5449 5442 5438 5432 5426 5418 5408 5394 5378 5364 5350 5333 5319 5302 5290 5275 5267 5257 5249
5620 5611 5603 5594 5583 5572 5563 5552 5543 5535 5528 5522 5515 5509 5502 5496 5490 5484 5478 5471 5464 5456 5449 5443 5436 5429 5422 5418 5411 5402 5390 5373 5356 5340 5326 5312 5294 5281 5272 5266 5259 5253 5244
5615 5606 5597 5584 5572 5561 5550 5541 5533 5526 5518 5511 5505 5499 5493 5486 5480 5473 5467 5459 5452 5444 5437 5430 5424 5415 5408 5403 5394 5384 5370 5354 5338 5321 5301 5283 5275 5266 5260 5258 5254 5247 5243
5610 5600 5587 5572 5560 5551 5541 5532 5522 5515 5508 5502 5496 5489 5482 5475 5469 5462 5454 5447 5440 5432 5426 5419 5411 5402 5394 5386 5375 5365 5352 5338 5322 5301 5282 5267 5261 5255 5252 5250 5247 5247 5243
5593 5581 5570 5560 5550 5539 5533 5524 5514 5507 5500 5493 5485 5479 5472 5466 5459 5451 5443 5436 5429 5423 5416 5408 5399 5391 5379 5366 5354 5342 5330 5320 5306 5290 5274 5260 5251 5249 5246 5243 5242 5240 5242
5575 5567 5559 5551 5540 5531 5524 5512 5504 5497 5490 5482 5475 5469 5463 5456 5448 5439 5432 5426 5419 5412 5405 5397 5388 5375 5362 5349 5336 5321 5305 5292 5283 5273 5265 5253 5246 5243 5240 5238 5235 5237 5244
5561 5555 5547 5535 5526 5520 5513 5502 5493 5485 5479 5472 5465 5458 5451 5444 5437 5429 5421 5414 5408 5401 5393 5386 5376 5362 5347 5333 5320 5306 5289 5275 5267 5260 5252 5246 5243 5239 5236 5235 5237 5240 5241
5549 5541 5534 5520 5510 5505 5502 5490 5480 5475 5468 5460 5453 5446 5440 5433 5425 5417 5410 5403 5397 5390 5382 5374 5363 5351 5335 5318 5304 5291 5279 5268 5259 5250 5247 5242 5239 5237 5234 5234 5238 5239 5237
5532 5526 5519 5508 5497 5492 5487 5480 5471 5465 5457 5449 5442 5435 5428 5422 5414 5407 5400 5391 5384 5376 5370 5360 5348 5333 5318 5304 5292 5281 5271 5260 5251 5246 5242 5238 5235 5234 5234 5236 5236 5236 5236
5520 5515 5508 5497 5486 5480 5473 5467 5460 5454 5446 5438 5432 5424 5418 5410 5403 5397 5389 5381 5372 5363 5354 5340 5327 5315 5304 5290 5277 5269 5262 5254 5247 5244 5237 5234 5233 5233 5233 5234 5236 5236 5237
5508 5501 5491 5485 5476 5470 5462 5456 5450 5444 5436 5429 5421 5414 5408 5400 5394 5386 5377 5368 5360 5348 5335 5322 5309 5297 5282 5274 5266 5259 5251 5245 5239 5236 5231 5231 5230 5230 5232 5234 5235 5236 5237